ABS-3A

Last updated on Nov. 22, 2019, 4:19 a.m. UTC

1 40424U 15010A   19325.15936675 -.00000027  00000-0  00000+0 0  9992
2 40424   0.0115 329.1223 0002061 163.4259 341.7573  1.00272344 17342
UTC
Height (km)
Latitude
Longitude
Inclination
Orbital Period
UTC large
Height (km)
Speed (km/s)
/
Latitude / Longitude
Inclination (degrees)
Orbital Period (minutes)
Azimuth
Elevation
Range (km)
Doppler Factor
iOS Compass Heading
iOS Angle

Next 30 passes for location: Hong Kong

Rise time Rise Azimuth (degrees) Set time Set Azimuth (degrees) Duration Max altitude (degrees)

No matching passes for this satellites